Date String (YYYY-MM-DD hh:mm:ss) UTC,Instrument flags,absolute air pressure of the measurement (hPa),sample flow rate (lpm),inlet stack bypass flow (lpm),air temperature of the measurement (°C),ambient temperature measured by the external sensor (°C),aerosol sample conditioner tube jacket temperature (°C),OPC LED temperature (°C),internal box temperature (°C),relative humidity of the measurement (%),span deviation,mass concentration of particles derived from Lorenz-Mie calculation of OPC scattering (μg/m³),mass concentration of particles derived from Lorenz-Mie calculation of OPC scattering (μg/m³),mass concentration of particles derived from Lorenz-Mie calculation of OPC scattering (μg/m³)
DateTimeUTC,F1_M11,P_M11,Q1_M11,Q2_M11,T1_M11,T2_M11,T3_M11,T4_M11,T5_M11,U1_M11,ZSPAN_M11,X2_M11,X0_M11,X1_M11
2023-08-29 22:00:00,SystemResetWarning,0836.8,5.01,000.00,027.6,024.0,000.0,035.8,029.0,27.3,0000.3,0004.18,0009.65,0003.68
2023-08-29 22:01:00,SystemResetWarning,0836.7,5.01,000.00,027.5,024.4,000.0,035.8,029.0,27.3,0000.3,0004.16,0009.11,0003.67
2023-08-29 22:02:00,SystemResetWarning,0836.8,5.00,000.00,027.5,024.9,000.0,035.9,029.1,28.0,0000.8,0004.14,0009.22,0003.65
2023-08-29 22:03:00,SystemResetWarning,0836.7,5.00,000.00,027.6,025.3,000.0,035.9,029.3,27.5,0000.1,0004.08,0008.51,0003.64
2023-08-29 22:04:00,SystemResetWarning,0836.7,5.00,000.00,027.6,025.8,000.0,036.0,029.4,27.6,0000.0,0004.03,0008.55,0003.61
2023-08-29 22:05:00,SystemResetWarning,0836.8,4.99,000.00,027.7,026.1,000.0,036.0,029.5,27.2,0000.0,0003.97,0008.64,0003.59
2023-08-29 22:06:00,SystemResetWarning,0836.8,4.99,000.00,027.8,026.4,000.0,036.0,029.6,27.3,0000.0,0003.97,0008.50,0003.59
2023-08-29 22:07:00,SystemResetWarning,0836.8,5.00,000.00,027.8,026.6,000.0,036.1,029.7,26.9,0000.0,0003.94,0008.02,0003.59
2023-08-29 22:08:00,SystemResetWarning,0836.7,4.99,000.00,027.8,025.7,000.0,036.0,029.5,26.8,0000.0,0003.92,0007.91,0003.58
2023-08-29 22:09:00,SystemResetWarning,0836.6,5.00,000.00,027.8,024.2,000.0,035.9,029.2,26.5,0000.0,0003.92,0007.87,0003.57
2023-08-29 22:10:00,SystemResetWarning,0836.7,5.01,000.00,027.7,023.9,000.0,035.8,029.1,27.0,0000.0,0003.90,0007.90,0003.55
2023-08-29 22:11:00,SystemResetWarning,0836.6,5.01,000.00,027.6,024.2,000.0,035.8,029.0,27.5,0000.0,0003.87,0007.83,0003.54
2023-08-29 22:12:00,SystemResetWarning,0836.6,5.00,000.00,027.6,024.6,000.0,035.9,029.1,27.1,0000.0,0003.87,0007.83,0003.54
2023-08-29 22:13:00,SystemResetWarning,0836.6,5.00,000.00,027.6,025.1,000.0,035.9,029.2,27.0,0000.0,0003.87,0007.67,0003.54
2023-08-29 22:14:00,SystemResetWarning,0836.6,5.00,000.00,027.6,025.5,000.0,036.0,029.3,27.0,0000.0,0003.87,0007.61,0003.54
2023-08-29 22:15:00,SystemResetWarning,0836.6,5.00,000.00,027.7,026.0,000.0,036.0,029.5,27.2,0000.0,0003.88,0007.54,0003.54
2023-08-29 22:16:00,SystemResetWarning,0836.6,5.00,000.00,027.8,026.3,000.0,036.0,029.6,27.0,0000.0,0003.91,0006.58,0003.55
2023-08-29 22:17:00,SystemResetWarning,0836.6,5.00,000.00,027.8,026.6,000.0,036.1,029.7,27.5,0000.0,0003.92,0006.71,0003.54
2023-08-29 22:18:00,SystemResetWarning,0836.6,4.98,000.00,027.8,025.9,000.0,036.0,029.4,27.0,0000.0,0003.91,0006.84,0003.54
2023-08-29 22:19:00,SystemResetWarning,0836.6,5.00,000.00,027.8,024.4,000.0,035.9,029.1,26.7,0000.0,0003.93,0007.20,0003.54
2023-08-29 22:20:00,SystemResetWarning,0836.6,5.00,000.00,027.7,023.9,000.0,035.8,029.1,26.9,0000.0,0003.92,0007.82,0003.54
2023-08-29 22:21:00,SystemResetWarning,0836.6,5.01,000.00,027.6,024.2,000.0,035.9,029.0,27.4,0000.0,0003.94,0007.89,0003.55
2023-08-29 22:22:00,SystemResetWarning,0836.6,5.00,000.00,027.6,024.6,000.0,035.9,029.0,27.7,0000.0,0003.96,0007.98,0003.56
2023-08-29 22:23:00,SystemResetWarning,0836.6,5.00,000.00,027.6,025.0,000.0,035.9,029.2,28.3,0000.0,0003.99,0008.06,0003.57
2023-08-29 22:24:00,SystemResetWarning,0836.6,5.00,000.00,027.7,025.5,000.0,036.0,029.3,28.5,0000.0,0003.97,0008.19,0003.57
2023-08-29 22:25:00,SystemResetWarning,0836.6,5.00,000.00,027.7,025.9,000.0,036.0,029.5,27.2,0000.0,0003.97,0008.71,0003.57
2023-08-29 22:26:00,SystemResetWarning,0836.6,5.00,000.00,027.8,026.2,000.0,036.0,029.6,27.7,0000.0,0003.98,0008.68,0003.58
2023-08-29 22:27:00,SystemResetWarning,0836.5,5.00,000.00,027.8,026.5,000.0,036.1,029.7,27.3,0000.0,0003.96,0008.61,0003.57
2023-08-29 22:28:00,SystemResetWarning,0836.5,4.99,000.00,027.9,026.0,000.0,036.0,029.6,27.0,0000.0,0003.93,0008.59,0003.57
2023-08-29 22:29:00,SystemResetWarning,0836.5,4.99,000.00,027.8,024.5,000.0,035.9,029.3,27.3,0000.0,0003.93,0008.88,0003.57
2023-08-29 22:30:00,SystemResetWarning,0836.5,5.01,000.00,027.7,023.9,000.0,035.8,029.1,27.5,0000.0,0003.91,0008.96,0003.56
2023-08-29 22:31:00,SystemResetWarning,0836.4,5.01,000.00,027.6,024.1,000.0,035.8,029.0,27.4,0000.0,0003.92,0008.41,0003.56
2023-08-29 22:32:00,SystemResetWarning,0836.5,4.99,000.00,027.6,024.5,000.0,035.9,029.1,27.3,0000.0,0003.90,0008.28,0003.56
2023-08-29 22:33:00,SystemResetWarning,0836.5,5.00,000.00,027.6,025.0,000.0,035.9,029.2,27.5,0000.0,0003.91,0008.32,0003.56
2023-08-29 22:34:00,SystemResetWarning,0836.5,5.00,000.00,027.7,025.5,000.0,036.0,029.4,27.2,0000.0,0003.88,0008.24,0003.56
2023-08-29 22:35:00,SystemResetWarning,0836.5,5.00,000.00,027.7,025.9,000.0,036.0,029.5,27.7,0000.0,0003.89,0008.08,0003.55
2023-08-29 22:36:00,SystemResetWarning,0836.5,5.00,000.00,027.8,026.2,000.0,036.0,029.6,27.7,0000.0,0003.91,0007.64,0003.55
2023-08-29 22:37:00,SystemResetWarning,0836.5,5.00,000.00,027.8,026.5,000.0,036.1,029.7,27.8,0000.0,0003.94,0008.03,0003.56
2023-08-29 22:38:00,SystemResetWarning,0836.5,4.99,000.00,027.9,026.2,000.0,036.0,029.6,28.0,0000.0,0003.96,0008.05,0003.56
2023-08-29 22:39:00,SystemResetWarning,0836.5,4.99,000.00,027.8,024.7,000.0,035.9,029.3,27.3,0000.0,0003.96,0007.99,0003.57
2023-08-29 22:40:00,SystemResetWarning,0836.5,5.00,000.00,027.7,023.9,000.0,035.8,029.1,26.8,0000.0,0003.95,0007.82,0003.57
2023-08-29 22:41:00,SystemResetWarning,0836.4,5.01,000.00,027.7,024.1,000.0,035.9,029.0,27.7,0000.0,0003.95,0007.63,0003.58
2023-08-29 22:42:00,SystemResetWarning,0836.4,5.01,000.00,027.6,024.4,000.0,035.9,029.0,27.4,-000.1,0003.95,0007.67,0003.59
2023-08-29 22:43:00,SystemResetWarning,0836.4,5.00,000.00,027.6,024.9,000.0,035.9,029.2,27.5,-000.3,0003.97,0007.78,0003.60
2023-08-29 22:44:00,SystemResetWarning,0836.3,5.00,000.00,027.7,025.4,000.0,036.0,029.3,27.5,-000.4,0003.96,0007.73,0003.61
2023-08-29 22:45:00,SystemResetWarning,0836.4,5.00,000.00,027.7,025.8,000.0,036.0,029.5,27.7,-000.5,0003.98,0007.78,0003.61
2023-08-29 22:46:00,SystemResetWarning,0836.5,5.00,000.00,027.8,026.2,000.0,036.0,029.6,27.8,-000.4,0003.99,0007.76,0003.61
2023-08-29 22:47:00,SystemResetWarning,0836.4,5.00,000.00,027.8,026.5,000.0,036.1,029.7,27.2,-000.6,0004.01,0008.08,0003.62
2023-08-29 22:48:00,SystemResetWarning,0836.4,4.98,000.00,027.9,026.3,000.0,036.1,029.6,27.3,0000.0,0004.02,0008.14,0003.62
2023-08-29 22:49:00,SystemResetWarning,0836.4,5.00,000.00,027.8,024.8,000.0,036.0,029.3,27.1,0000.0,0004.02,0008.20,0003.63
2023-08-29 22:50:00,SystemResetWarning,0836.3,5.00,000.00,027.7,023.9,000.0,035.9,029.1,27.5,-000.1,0004.08,0008.54,0003.64
2023-08-29 22:51:00,SystemResetWarning,0836.3,5.01,000.00,027.7,024.0,000.0,035.9,029.0,27.6,-000.6,0004.14,0008.43,0003.65
2023-08-29 22:52:00,SystemResetWarning,0836.3,5.00,000.00,027.6,024.4,000.0,035.9,029.0,27.6,0000.0,0004.16,0008.63,0003.66
2023-08-29 22:53:00,SystemResetWarning,0836.4,5.01,000.00,027.6,024.9,000.0,035.9,029.1,28.1,0000.0,0004.19,0008.87,0003.67
2023-08-29 22:54:00,SystemResetWarning,0836.4,5.00,000.00,027.6,025.3,000.0,036.0,029.3,28.2,0000.0,0004.21,0008.83,0003.68
2023-08-29 22:55:00,SystemResetWarning,0836.4,5.00,000.00,027.7,025.8,000.0,036.0,029.4,28.1,0000.0,0004.23,0008.90,0003.69
2023-08-29 22:56:00,SystemResetWarning,0836.4,5.00,000.00,027.7,026.2,000.0,036.0,029.5,27.8,0000.0,0004.26,0008.99,0003.72
2023-08-29 22:57:00,SystemResetWarning,0836.4,5.00,000.00,027.8,026.5,000.0,036.1,029.6,27.4,0000.0,0004.31,0009.32,0003.75
2023-08-29 22:58:00,SystemResetWarning,0836.4,5.00,000.00,027.9,026.7,000.0,036.1,029.7,27.1,0000.0,0004.37,0009.33,0003.77
2023-08-29 22:59:00,SystemResetWarning,0836.3,4.99,000.00,027.9,026.0,000.0,036.1,029.6,26.9,0000.0,0004.44,0009.11,0003.81
